This demonstration page uses our WeatherBlox Daily Observations layout. Learn more.

Left ArrowRight Arrow

38.20091, -84.87328

Hourly Observations for June 3, 2021

Temp ( °F °C ) Dew Point ( °F °C ) Humidity (%) Winds ( mph kmh ) Pressure ( in mb ) Visibility ( mi km ) Precip ( " mm )
12:53 am 00:53 Clear 66 18.9 61 16.1 84 84 S 6 9 29.93 1013 10 16 0.00 0.00
1:53 am 01:53 Cloudy 67 19.4 62 16.7 84 84 S 7 11 29.92 1013 10 16 0.00 0.00
2:48 am 02:48 Cloudy 66 19 63 17 88 88 S 7 11 29.90 1013 10 16 0.08 2.03
2:53 am 02:53 Cloudy with Thunderstorms 67 19.4 63 17.2 87 87 S 7 11 29.91 1013 10 16 0.08 2.03
3:11 am 03:11 Cloudy with Light Rain 67 19.4 63 17.2 87 87 S 7 11 29.90 1013 10 16 0.08 2.03
3:53 am 03:53 Cloudy 67 19.4 63 17.2 87 87 S 8 13 29.90 1013 10 16 0.16 4.06
4:21 am 04:21 Cloudy 67 19.4 62 16.7 84 84 SSW 9 15 29.91 1013 10 16 0.00 0.00
4:38 am 04:38 Partly Cloudy 67 19.4 62 16.7 84 84 SSW 8 13 29.90 1013 10 16 0.00 0.00
4:53 am 04:53 Mostly Cloudy 66 18.9 62 16.7 87 87 S 8 13 29.91 1013 10 16 0.00 0.00
5:53 am 05:53 Cloudy 67 19.4 62 16.7 84 84 SSW 8 13 29.90 1013 10 16 0.00 0.00
6:53 am 06:53 Mostly Cloudy 66 18.9 63 17.2 90 90 S 8 13 29.92 1013 10 16 0.00 0.00
7:14 am 07:14 Mostly Cloudy 67 19.4 63 17.2 87 87 S 6 9 29.92 1013 10 16 0.00 0.00
7:53 am 07:53 Cloudy 67 19.4 63 17.2 87 87 S 8 13 29.93 1013 10 16 0.00 0.00
8:03 am 08:03 Cloudy 67 19.4 63 17.2 87 87 S 8 13 29.92 1013 7 11 0.00 0.00
8:53 am 08:53 Cloudy 67 19.4 64 17.8 91 91 S 3 6 29.93 1014 10 16 0.00 0.00
9:06 am 09:06 Cloudy 68 20 64 17.8 87 87 S 6 9 29.93 1014 10 16 0.00 0.00
9:21 am 09:21 Cloudy 68 20 64 17.8 87 87 S 6 9 29.93 1014 10 16 0.00 0.00
9:53 am 09:53 Cloudy 68 20 64 17.8 87 87 S 9 15 29.93 1014 10 16 0.00 0.00
10:53 am 10:53 Cloudy 70 21.1 64 17.8 82 82 SSW 10 17 29.93 1014 10 16 0.00 0.00
11:46 am 11:46 Cloudy 71 21.7 65 18.3 81 81 SSW 9 15 29.93 1013 10 16 0.00 0.00
11:53 am 11:53 Cloudy 72 22.2 65 18.3 79 79 SSW 10 17 29.93 1014 10 16 0.00 0.00
12:53 pm 12:53 Cloudy 72 22.2 64 17.8 76 76 S 10 17 29.91 1013 10 16 0.00 0.00
1:46 pm 13:46 Cloudy 73 22.8 64 17.8 74 74 SSW 7 11 29.90 1013 10 16 0.00 0.00
1:53 pm 13:53 Cloudy with Nearby Thunderstorms 73 22.8 64 17.8 74 74 S 9 15 29.91 1013 10 16 0.00 0.00
2:09 pm 14:09 Cloudy with Thunderstorms 71 21.7 62 16.7 73 73 WSW 17 28 29.93 1013 4 6 0.06 1.52
2:11 pm 14:11 Cloudy with Thunderstorms 69 20.6 60 15.6 73 73 SW 22 35 29.93 1014 2 3 0.10 2.54
2:15 pm 14:15 Cloudy with Strong Thunderstorms 65 18.3 58 14.4 78 78 WSW 14 22 29.92 1013 1 2 0.18 4.57
2:20 pm 14:20 Cloudy with Strong Thunderstorms 64 17.8 59 15 84 84 WSW 5 7 29.91 1013 1 2 0.20 5.08
2:26 pm 14:26 Cloudy with Thunderstorms 63 17.2 59 15 87 87 SW 5 7 29.92 1013 4 6 0.21 5.33
2:43 pm 14:43 Cloudy with Nearby Thunderstorms 64 17.8 60 15.6 87 87 SW 5 7 29.92 1013 10 16 0.21 5.33
2:53 pm 14:53 Cloudy 64 17.8 60 15.6 87 87 SSE 5 7 29.92 1013 10 16 0.21 5.33
3:53 pm 15:53 Mostly Cloudy 68 20 63 17.2 84 84 SSW 5 7 29.89 1012 10 16 0.00 0.00
4:53 pm 16:53 Sunny 74 23.3 63 17.2 69 69 VRB 5 7 29.89 1012 10 16 0.00 0.00
5:53 pm 17:53 Sunny 76 24.4 63 17.2 64 64 VRB 5 7 29.87 1012 10 16 0.00 0.00
6:53 pm 18:53 Sunny 75 23.9 62 16.7 64 64 WSW 5 7 29.88 1012 10 16 0.00 0.00
7:45 pm 19:45 Partly Cloudy with Nearby Thunderstorms 71 21.7 63 17.2 76 76 SW 7 11 29.87 1011 10 16 0.00 0.00
7:53 pm 19:53 Partly Cloudy with Nearby Thunderstorms 71 21.7 63 17.2 76 76 SW 5 7 29.88 1012 10 16 0.00 0.00
8:13 pm 20:13 Partly Cloudy with Thunderstorms 71 21.7 63 17.2 76 76 W 3 6 29.88 1012 10 16 0.00 0.00
8:28 pm 20:28 Mostly Cloudy with Nearby Thunderstorms 71 21.7 61 16.1 71 71 NW 7 11 29.89 1012 10 16 0.00 0.00
8:35 pm 20:35 Cloudy with Nearby Thunderstorms 70 21.1 60 15.6 71 71 WNW 6 9 29.89 1012 10 16 0.00 0.00
8:44 pm 20:44 Cloudy with Nearby Thunderstorms 70 21.1 60 15.6 71 71 WNW 7 11 29.90 1012 10 16 0.00 0.00
8:51 pm 20:51 Cloudy with Thunderstorms 70 21 61 16 73 73 WNW 7 11 29.90 1012 8 13 0.00 0.00
8:53 pm 20:53 Cloudy with Thunderstorms 68 20 61 16.1 78 78 W 5 7 29.91 1013 6 10 0.00 0.00
9:01 pm 21:01 Cloudy with Nearby Thunderstorms 67 19.4 62 16.7 84 84 SW 6 9 29.91 1013 3 4 0.03 0.76
9:08 pm 21:08 Cloudy with Thunderstorms 67 19.4 63 17.2 87 87 WSW 5 7 29.91 1013 3 5 0.04 1.02
9:26 pm 21:26 Cloudy with Nearby Thunderstorms 66 18.9 63 17.2 90 90 WSW 3 6 29.92 1013 10 16 0.04 1.02
9:34 pm 21:34 Cloudy 66 18.9 63 17.2 90 90 WSW 3 6 29.92 1013 10 16 0.04 1.02
9:53 pm 21:53 Cloudy 66 18.9 63 17.2 90 90 WSW 5 7 29.93 1014 10 16 0.04 1.02
10:53 pm 22:53 Cloudy 66 18.9 63 17.2 90 90 WSW 3 6 29.96 1014 10 16 0.00 0.00
11:53 pm 23:53 Clear 65 18.3 62 16.7 90 90 W 5 7 29.97 1015 10 16 0.00 0.00

Powered by AerisWeather